Weather in Sozonovo

Russia / Tyumen Oblast     57°08′36″N   66°18′20″E
temp.,
°C
wind,
m/s
gust,
m/s
humid.,
%
clouds,
%
prec.,
mm/h
press.,
hPa
HPBL,
m
25 july, sun
sun2523:00+15ene1299100 0.0 100655
02:00+15n2398100 0.0 100679
05:00+15n2497100 0.1 1006131
08:00+16n2487100 0.0 1006251
11:00+19nw358417 0.9 1007300
14:00+21nnw56675 1.4 10081161
17:00+21nnw675611 1.9 10101227
20:00+17nnw37638 0.0 1011287
26 july, mon
mon2623:00+15nnw310548 0.0 1013306
02:00+11nnw311653 0.0 1014250
05:00+9nw3117724 0.0 1015264
08:00+15nnw47551 0.0 1016773
11:00+17nnw4743100 0.0 10162179
14:00+17wnw4643100 0.0 10151625
17:00+17wnw4745100 0.0 10151309
20:00+15wnw3855100 0.0 1014291
27 july, tue
tue2723:00+13wsw2664100 0.0 1014151
02:00+10wsw387275 0.0 1013148
05:00+10wsw27785 0.0 1013169
08:00+15wsw36665 0.0 1012498
11:00+20wsw474912 0.0 10101598
14:00+21w695199 0.1 10092051
17:00+17wnw476910 0.6 1009996
20:00+14wnw37865 0.4 1009207
28 july, wed
wed2823:00+11nw12945 0.4 100911
02:00+11nnw1187100 0.0 100921
05:00+11nnw118595 0.0 100911
08:00+13w1275100 0.0 1008172
11:00+12w4782100 0.2 1009408
14:00+19wnw5741100 0.2 10082389
17:00+18nw684191 0.2 10092215
20:00+14nw25605 0.0 1010140
29 july, thu
thu2923:00+9sw227890 0.0 101014
02:00+10ssw256975 0.0 1010112
05:00+9ssw387869 0.0 1009168
08:00+14sw31162100 0.0 1008580
11:00+17wsw495698 0.3 10071073
14:00+14wsw278870 0.8 1007202
17:00+15wnw117994 1.5 100633
20:00+15w28876 1.4 1007206